Location: Beneden-Haastrecht
(52.0012°N, 4.7557°E)
Time: 20:24:27
(UTC+00:00)

X-37B - Visible Passes

Search period start: 22 January 2021 00:00
Search period end: 01 February 2021 00:00
Orbit: 385 x 390 km, 45.0° (Epoch: 20 January)

Date Brightness Start Highest point End Pass type
(mag) Time Alt. Az. Time Alt. Az. Time Alt. Az.
22 Jan 3.1 17:12:43 10° S 17:13:56 12° SSE 17:15:10 10° SE visible
22 Jan 3.1 18:47:19 10° SW 18:48:34 17° SSW 18:48:34 17° SSW visible
23 Jan 2.6 17:49:20 10° SW 17:51:42 19° SSE 17:52:52 16° SE visible
24 Jan 3.0 16:51:33 10° SSW 16:53:33 16° SSE 16:55:34 10° ESE visible
24 Jan 2.4 18:26:58 10° SW 18:29:28 23° S 18:29:28 23° S visible
25 Jan 2.5 17:28:51 10° SW 17:31:23 22° S 17:33:47 11° ESE visible
25 Jan 3.4 19:05:03 10° WSW 19:06:04 15° SW 19:06:04 15° SW visible
26 Jan 2.5 18:06:43 10° WSW 18:09:16 22° S 18:10:25 18° SSE visible
27 Jan 2.6 17:08:29 10° SW 17:11:05 23° S 17:13:40 10° SE visible
27 Jan 3.0 18:45:02 10° WSW 18:47:06 16° SSW 18:47:07 16° SSW visible
28 Jan 2.9 17:46:34 10° WSW 17:48:57 20° SSW 17:51:20 10° SE visible
29 Jan 3.4 18:25:24 10° SW 18:26:43 12° SSW 18:28:02 10° S visible
30 Jan 3.3 17:26:34 10° WSW 17:28:37 16° SSW 17:30:39 10° SSE visible
